Year,Month,Day,Hour,Minute,Value (Times are PST for windgust in km/hr)
2016,03,03,00,00,9.60
2016,03,03,00,01,11.30
2016,03,03,00,02,12.90
2016,03,03,00,03,14.50
2016,03,03,00,04,9.60
2016,03,03,00,05,9.60
2016,03,03,00,06,9.60
2016,03,03,00,07,14.50
2016,03,03,00,08,14.50
2016,03,03,00,09,12.90
2016,03,03,00,10,11.30
2016,03,03,00,11,14.50
2016,03,03,00,12,14.50
2016,03,03,00,13,14.50
2016,03,03,00,14,14.50
2016,03,03,00,15,16.10
2016,03,03,00,16,14.50
2016,03,03,00,17,19.30
2016,03,03,00,18,14.50
2016,03,03,00,19,14.50
2016,03,03,00,20,16.10
2016,03,03,00,21,24.20
2016,03,03,00,22,20.90
2016,03,03,00,23,20.90
2016,03,03,00,24,25.70
2016,03,03,00,25,24.20
2016,03,03,00,26,20.90
2016,03,03,00,27,29.00
2016,03,03,00,28,30.60
2016,03,03,00,29,38.60
2016,03,03,00,30,37.00
2016,03,03,00,31,37.00
2016,03,03,00,32,37.00
2016,03,03,00,33,40.20
2016,03,03,00,34,37.00
2016,03,03,00,35,41.80
2016,03,03,00,36,38.60
2016,03,03,00,37,38.60
2016,03,03,00,38,38.60
2016,03,03,00,39,38.60
2016,03,03,00,40,40.20
2016,03,03,00,41,48.30
2016,03,03,00,42,40.20
2016,03,03,00,43,41.80
2016,03,03,00,44,40.20
2016,03,03,00,45,43.50
2016,03,03,00,46,38.60
2016,03,03,00,47,38.60
2016,03,03,00,48,41.80
2016,03,03,00,49,37.00
2016,03,03,00,50,35.40
2016,03,03,00,51,40.20
2016,03,03,00,52,43.50
2016,03,03,00,53,43.50
2016,03,03,00,54,40.20
2016,03,03,00,55,41.80
2016,03,03,00,56,41.80
2016,03,03,00,57,38.60
2016,03,03,00,58,45.10
2016,03,03,00,59,43.50
2016,03,03,01,00,40.20
2016,03,03,01,01,33.80
2016,03,03,01,02,33.80
2016,03,03,01,03,33.80
2016,03,03,01,04,29.00
2016,03,03,01,05,29.00
2016,03,03,01,06,32.20
2016,03,03,01,07,40.20
2016,03,03,01,08,43.50
2016,03,03,01,09,43.50
2016,03,03,01,10,49.90
2016,03,03,01,11,48.30
2016,03,03,01,12,46.70
2016,03,03,01,13,45.10
2016,03,03,01,14,38.60
2016,03,03,01,15,40.20
2016,03,03,01,16,40.20
2016,03,03,01,17,38.60
2016,03,03,01,18,37.00
2016,03,03,01,19,37.00
2016,03,03,01,20,33.80
2016,03,03,01,21,29.00
2016,03,03,01,22,29.00
2016,03,03,01,23,30.60
2016,03,03,01,24,30.60
2016,03,03,01,25,30.60
2016,03,03,01,26,30.60
2016,03,03,01,27,27.40
2016,03,03,01,28,25.70
2016,03,03,01,29,29.00
2016,03,03,01,30,29.00
2016,03,03,01,31,27.40
2016,03,03,01,32,29.00
2016,03,03,01,33,25.70
2016,03,03,01,34,27.40
2016,03,03,01,35,24.20
2016,03,03,01,36,27.40
2016,03,03,01,37,25.70
2016,03,03,01,38,27.40
2016,03,03,01,39,25.70
2016,03,03,01,40,24.20
2016,03,03,01,41,22.50
2016,03,03,01,42,22.50
2016,03,03,01,43,24.20
2016,03,03,01,44,24.20
2016,03,03,01,45,24.20
2016,03,03,01,46,22.50
2016,03,03,01,47,22.50
2016,03,03,01,48,22.50
2016,03,03,01,49,22.50
2016,03,03,01,50,20.90
2016,03,03,01,51,20.90
2016,03,03,01,52,20.90
2016,03,03,01,53,22.50
2016,03,03,01,54,20.90
2016,03,03,01,55,20.90
2016,03,03,01,56,20.90
2016,03,03,01,57,22.50
2016,03,03,01,58,20.90
2016,03,03,01,59,24.20
2016,03,03,02,00,20.90
2016,03,03,02,01,22.50
2016,03,03,02,02,20.90
2016,03,03,02,03,22.50
2016,03,03,02,04,22.50
2016,03,03,02,05,22.50
2016,03,03,02,06,20.90
2016,03,03,02,07,22.50
2016,03,03,02,08,20.90
2016,03,03,02,09,20.90
2016,03,03,02,10,20.90
2016,03,03,02,11,20.90
2016,03,03,02,12,19.30
2016,03,03,02,13,20.90
2016,03,03,02,14,20.90
2016,03,03,02,15,19.30
2016,03,03,02,16,22.50
2016,03,03,02,17,24.20
2016,03,03,02,18,22.50
2016,03,03,02,19,22.50
2016,03,03,02,20,20.90
2016,03,03,02,21,19.30
2016,03,03,02,22,14.50
2016,03,03,02,23,14.50
2016,03,03,02,24,14.50
2016,03,03,02,25,14.50
2016,03,03,02,26,17.70
2016,03,03,02,27,16.10
2016,03,03,02,28,14.50
2016,03,03,02,29,17.70
2016,03,03,02,30,17.70
2016,03,03,02,31,20.90
2016,03,03,02,32,20.90
2016,03,03,02,33,19.30
2016,03,03,02,34,22.50
2016,03,03,02,35,22.50
2016,03,03,02,36,20.90
2016,03,03,02,37,24.20
2016,03,03,02,38,20.90
2016,03,03,02,39,20.90
2016,03,03,02,40,19.30
2016,03,03,02,41,19.30
2016,03,03,02,42,20.90
2016,03,03,02,43,19.30
2016,03,03,02,44,17.70
2016,03,03,02,45,20.90
2016,03,03,02,46,16.10
2016,03,03,02,47,17.70
2016,03,03,02,48,16.10
2016,03,03,02,49,17.70
2016,03,03,02,50,20.90
2016,03,03,02,51,16.10
2016,03,03,02,52,16.10
2016,03,03,02,53,14.50
2016,03,03,02,54,16.10
2016,03,03,02,55,14.50
2016,03,03,02,56,12.90
2016,03,03,02,57,14.50
2016,03,03,02,58,17.70
2016,03,03,02,59,17.70
2016,03,03,03,00,19.30
2016,03,03,03,01,16.10
2016,03,03,03,02,17.70
2016,03,03,03,03,17.70
2016,03,03,03,04,17.70
2016,03,03,03,05,17.70
2016,03,03,03,06,17.70
2016,03,03,03,07,19.30
2016,03,03,03,08,20.90
2016,03,03,03,09,22.50
2016,03,03,03,10,22.50
2016,03,03,03,11,22.50
2016,03,03,03,12,22.50
2016,03,03,03,13,22.50
2016,03,03,03,14,24.20
2016,03,03,03,15,25.70
2016,03,03,03,16,25.70
2016,03,03,03,17,27.40
2016,03,03,03,18,25.70
2016,03,03,03,19,24.20
2016,03,03,03,20,24.20
2016,03,03,03,21,22.50
2016,03,03,03,22,22.50
2016,03,03,03,23,20.90
2016,03,03,03,24,20.90
2016,03,03,03,25,22.50
2016,03,03,03,26,22.50
2016,03,03,03,27,22.50
2016,03,03,03,28,22.50
2016,03,03,03,29,20.90
2016,03,03,03,30,20.90
2016,03,03,03,31,19.30
2016,03,03,03,32,22.50
2016,03,03,03,33,22.50
2016,03,03,03,34,22.50
2016,03,03,03,35,20.90
2016,03,03,03,36,20.90
2016,03,03,03,37,19.30
2016,03,03,03,38,20.90
2016,03,03,03,39,19.30
2016,03,03,03,40,19.30
2016,03,03,03,41,19.30
2016,03,03,03,42,19.30
2016,03,03,03,43,19.30
2016,03,03,03,44,20.90
2016,03,03,03,45,22.50
2016,03,03,03,46,22.50
2016,03,03,03,47,20.90
2016,03,03,03,48,22.50
2016,03,03,03,49,24.20
2016,03,03,03,50,25.70
2016,03,03,03,51,25.70
2016,03,03,03,52,24.20
2016,03,03,03,53,24.20
2016,03,03,03,54,24.20
2016,03,03,03,55,22.50
2016,03,03,03,56,22.50
2016,03,03,03,57,22.50
2016,03,03,03,58,20.90
2016,03,03,03,59,19.30
2016,03,03,04,00,19.30
2016,03,03,04,01,19.30
2016,03,03,04,02,17.70
2016,03,03,04,03,16.10
2016,03,03,04,04,16.10
2016,03,03,04,05,16.10
2016,03,03,04,06,16.10
2016,03,03,04,07,17.70
2016,03,03,04,08,17.70
2016,03,03,04,09,17.70
2016,03,03,04,10,17.70
2016,03,03,04,11,19.30
2016,03,03,04,12,19.30
2016,03,03,04,13,19.30
2016,03,03,04,14,19.30
2016,03,03,04,15,19.30
2016,03,03,04,16,19.30
2016,03,03,04,17,19.30
2016,03,03,04,18,20.90
2016,03,03,04,19,20.90
2016,03,03,04,20,19.30
2016,03,03,04,21,17.70
2016,03,03,04,22,17.70
2016,03,03,04,23,17.70
2016,03,03,04,24,17.70
2016,03,03,04,25,17.70
2016,03,03,04,26,19.30
2016,03,03,04,27,20.90
2016,03,03,04,28,20.90
2016,03,03,04,29,22.50
2016,03,03,04,30,20.90
2016,03,03,04,31,20.90
2016,03,03,04,32,20.90
2016,03,03,04,33,22.50
2016,03,03,04,34,22.50
2016,03,03,04,35,20.90
2016,03,03,04,36,22.50
2016,03,03,04,37,22.50
2016,03,03,04,38,24.20
2016,03,03,04,39,24.20
2016,03,03,04,40,25.70
2016,03,03,04,41,24.20
2016,03,03,04,42,22.50
2016,03,03,04,43,22.50
2016,03,03,04,44,24.20
2016,03,03,04,45,24.20
2016,03,03,04,46,24.20
2016,03,03,04,47,24.20
2016,03,03,04,48,25.70
2016,03,03,04,49,25.70
2016,03,03,04,50,24.20
2016,03,03,04,51,27.40
2016,03,03,04,52,27.40
2016,03,03,04,53,24.20
2016,03,03,04,54,22.50
2016,03,03,04,55,22.50
2016,03,03,04,56,22.50
2016,03,03,04,57,20.90
2016,03,03,04,58,20.90
2016,03,03,04,59,20.90
2016,03,03,05,00,20.90
2016,03,03,05,01,22.50
2016,03,03,05,02,22.50
2016,03,03,05,03,20.90
2016,03,03,05,04,22.50
2016,03,03,05,05,20.90
2016,03,03,05,06,19.30
2016,03,03,05,07,19.30
2016,03,03,05,08,19.30
2016,03,03,05,09,20.90
2016,03,03,05,10,17.70
2016,03,03,05,11,19.30
2016,03,03,05,12,19.30
2016,03,03,05,13,17.70
2016,03,03,05,14,17.70
2016,03,03,05,15,14.50
2016,03,03,05,16,14.50
2016,03,03,05,17,14.50
2016,03,03,05,18,16.10
2016,03,03,05,19,14.50
2016,03,03,05,20,16.10
2016,03,03,05,21,17.70
2016,03,03,05,22,20.90
2016,03,03,05,23,20.90
2016,03,03,05,24,22.50
2016,03,03,05,25,24.20
2016,03,03,05,26,25.70
2016,03,03,05,27,24.20
2016,03,03,05,28,25.70
2016,03,03,05,29,25.70
2016,03,03,05,30,27.40
2016,03,03,05,31,24.20
2016,03,03,05,32,24.20
2016,03,03,05,33,22.50
2016,03,03,05,34,19.30
2016,03,03,05,35,25.70
2016,03,03,05,36,24.20
2016,03,03,05,37,24.20
2016,03,03,05,38,22.50
2016,03,03,05,39,20.90
2016,03,03,05,40,19.30
2016,03,03,05,41,17.70
2016,03,03,05,42,19.30
2016,03,03,05,43,17.70
2016,03,03,05,44,17.70
2016,03,03,05,45,17.70
2016,03,03,05,46,17.70
2016,03,03,05,47,19.30
2016,03,03,05,48,17.70
2016,03,03,05,49,19.30
2016,03,03,05,50,19.30
2016,03,03,05,51,20.90
2016,03,03,05,52,19.30
2016,03,03,05,53,22.50
2016,03,03,05,54,20.90
2016,03,03,05,55,24.20
2016,03,03,05,56,22.50
2016,03,03,05,57,22.50
2016,03,03,05,58,20.90
2016,03,03,05,59,22.50
2016,03,03,06,00,24.20
2016,03,03,06,01,25.70
2016,03,03,06,02,25.70
2016,03,03,06,03,24.20
2016,03,03,06,04,24.20
2016,03,03,06,05,25.70
2016,03,03,06,06,25.70
2016,03,03,06,07,22.50
2016,03,03,06,08,24.20
2016,03,03,06,09,24.20
2016,03,03,06,10,24.20
2016,03,03,06,11,22.50
2016,03,03,06,12,24.20
2016,03,03,06,13,24.20
2016,03,03,06,14,22.50
2016,03,03,06,15,22.50
2016,03,03,06,16,24.20
2016,03,03,06,17,22.50
2016,03,03,06,18,22.50
2016,03,03,06,19,20.90
2016,03,03,06,20,17.70
2016,03,03,06,21,16.10
2016,03,03,06,22,16.10
2016,03,03,06,23,16.10
2016,03,03,06,24,16.10
2016,03,03,06,25,14.50
2016,03,03,06,26,14.50
2016,03,03,06,27,14.50
2016,03,03,06,28,14.50
2016,03,03,06,29,14.50
2016,03,03,06,30,14.50
2016,03,03,06,31,14.50
2016,03,03,06,32,14.50
2016,03,03,06,33,14.50
2016,03,03,06,34,14.50
2016,03,03,06,35,14.50
2016,03,03,06,36,14.50
2016,03,03,06,37,14.50
2016,03,03,06,38,14.50
2016,03,03,06,39,16.10
2016,03,03,06,40,17.70
2016,03,03,06,41,20.90
2016,03,03,06,42,20.90
2016,03,03,06,43,17.70
2016,03,03,06,44,17.70
2016,03,03,06,45,17.70
2016,03,03,06,46,17.70
2016,03,03,06,47,16.10
2016,03,03,06,48,20.90
2016,03,03,06,49,20.90
2016,03,03,06,50,22.50
2016,03,03,06,51,22.50
2016,03,03,06,52,24.20
2016,03,03,06,53,22.50
2016,03,03,06,54,24.20
2016,03,03,06,55,22.50
2016,03,03,06,56,25.70
2016,03,03,06,57,27.40
2016,03,03,06,58,27.40
2016,03,03,06,59,25.70
2016,03,03,07,00,27.40
2016,03,03,07,01,27.40
2016,03,03,07,02,25.70
2016,03,03,07,03,27.40
2016,03,03,07,04,29.00
2016,03,03,07,05,29.00
2016,03,03,07,06,27.40
2016,03,03,07,07,25.70
2016,03,03,07,08,27.40
2016,03,03,07,09,27.40
2016,03,03,07,10,25.70
2016,03,03,07,11,29.00
2016,03,03,07,12,30.60
2016,03,03,07,13,29.00
2016,03,03,07,14,29.00
2016,03,03,07,15,29.00
2016,03,03,07,16,29.00
2016,03,03,07,17,30.60
2016,03,03,07,18,30.60
2016,03,03,07,19,29.00
2016,03,03,07,20,27.40
2016,03,03,07,21,27.40
2016,03,03,07,22,29.00
2016,03,03,07,23,29.00
2016,03,03,07,24,27.40
2016,03,03,07,25,24.20
2016,03,03,07,26,24.20
2016,03,03,07,27,22.50
2016,03,03,07,28,22.50
2016,03,03,07,29,24.20
2016,03,03,07,30,24.20
2016,03,03,07,31,24.20
2016,03,03,07,32,22.50
2016,03,03,07,33,22.50
2016,03,03,07,34,22.50
2016,03,03,07,35,20.90
2016,03,03,07,36,20.90
2016,03,03,07,37,20.90
2016,03,03,07,38,20.90
2016,03,03,07,39,20.90
2016,03,03,07,40,17.70
2016,03,03,07,41,17.70
2016,03,03,07,42,16.10
2016,03,03,07,43,17.70
2016,03,03,07,44,20.90
2016,03,03,07,45,19.30
2016,03,03,07,46,19.30
2016,03,03,07,47,17.70
2016,03,03,07,48,17.70
2016,03,03,07,49,17.70
2016,03,03,07,50,17.70
2016,03,03,07,51,17.70
2016,03,03,07,52,17.70
2016,03,03,07,53,16.10
2016,03,03,07,54,16.10
2016,03,03,07,55,14.50
2016,03,03,07,56,14.50
2016,03,03,07,57,12.90
2016,03,03,07,58,12.90
2016,03,03,07,59,11.30
2016,03,03,08,00,12.90
2016,03,03,08,01,12.90
2016,03,03,08,02,11.30
2016,03,03,08,03,9.60
2016,03,03,08,04,9.60
2016,03,03,08,05,11.30
2016,03,03,08,06,11.30
2016,03,03,08,07,11.30
2016,03,03,08,08,11.30
2016,03,03,08,09,12.90
2016,03,03,08,10,12.90
2016,03,03,08,11,12.90
2016,03,03,08,12,12.90
2016,03,03,08,13,12.90
2016,03,03,08,14,11.30
2016,03,03,08,15,11.30
2016,03,03,08,16,12.90
2016,03,03,08,17,14.50
2016,03,03,08,18,12.90
2016,03,03,08,19,12.90
2016,03,03,08,20,11.30
2016,03,03,08,21,11.30
2016,03,03,08,22,11.30
2016,03,03,08,23,12.90
2016,03,03,08,24,12.90
2016,03,03,08,25,12.90
2016,03,03,08,26,12.90
2016,03,03,08,27,12.90
2016,03,03,08,28,12.90
2016,03,03,08,29,12.90
2016,03,03,08,30,12.90
2016,03,03,08,31,12.90
2016,03,03,08,32,12.90
2016,03,03,08,33,11.30
2016,03,03,08,34,12.90
2016,03,03,08,35,16.10
2016,03,03,08,36,16.10
2016,03,03,08,37,14.50
2016,03,03,08,38,14.50
2016,03,03,08,39,16.10
2016,03,03,08,40,14.50
2016,03,03,08,41,14.50
2016,03,03,08,42,14.50
2016,03,03,08,43,16.10
2016,03,03,08,44,16.10
2016,03,03,08,45,16.10
2016,03,03,08,46,14.50
2016,03,03,08,47,12.90
2016,03,03,08,48,11.30
2016,03,03,08,49,8.10
2016,03,03,08,50,6.40
2016,03,03,08,51,8.10
2016,03,03,08,52,8.10
2016,03,03,08,53,11.30
2016,03,03,08,54,11.30
2016,03,03,08,55,11.30
2016,03,03,08,56,9.60
2016,03,03,08,57,8.10
2016,03,03,08,58,6.40
2016,03,03,08,59,4.80
2016,03,03,09,00,6.40
2016,03,03,09,01,6.40
2016,03,03,09,02,4.80
2016,03,03,09,03,4.80
2016,03,03,09,04,4.80
2016,03,03,09,05,4.80
2016,03,03,09,06,4.80
2016,03,03,09,07,4.80
2016,03,03,09,08,4.80
2016,03,03,09,09,6.40
2016,03,03,09,10,6.40
2016,03,03,09,11,6.40
2016,03,03,09,12,8.10
2016,03,03,09,13,11.30
2016,03,03,09,14,11.30
2016,03,03,09,15,14.50
2016,03,03,09,16,19.30
2016,03,03,09,17,19.30
2016,03,03,09,18,17.70
2016,03,03,09,19,14.50
2016,03,03,09,20,12.90
2016,03,03,09,21,14.50
2016,03,03,09,22,12.90
2016,03,03,09,23,12.90
2016,03,03,09,24,17.70
2016,03,03,09,25,17.70
2016,03,03,09,26,20.90
2016,03,03,09,27,19.30
2016,03,03,09,28,14.50
2016,03,03,09,29,11.30
2016,03,03,09,30,12.90
2016,03,03,09,31,14.50
2016,03,03,09,32,19.30
2016,03,03,09,33,20.90
2016,03,03,09,34,19.30
2016,03,03,09,35,19.30
2016,03,03,09,36,17.70
2016,03,03,09,37,19.30
2016,03,03,09,38,19.30
2016,03,03,09,39,17.70
2016,03,03,09,40,19.30
2016,03,03,09,41,20.90
2016,03,03,09,42,19.30
2016,03,03,09,43,19.30
2016,03,03,09,44,20.90
2016,03,03,09,45,20.90
2016,03,03,09,46,22.50
2016,03,03,09,47,22.50
2016,03,03,09,48,20.90
2016,03,03,09,49,22.50
2016,03,03,09,50,20.90
2016,03,03,09,51,20.90
2016,03,03,09,52,20.90
2016,03,03,09,53,22.50
2016,03,03,09,54,22.50
2016,03,03,09,55,20.90
2016,03,03,09,56,20.90
2016,03,03,09,57,20.90
2016,03,03,09,58,20.90
2016,03,03,09,59,20.90
2016,03,03,10,00,19.30
2016,03,03,10,01,17.70
2016,03,03,10,02,16.10
2016,03,03,10,03,12.90
2016,03,03,10,04,12.90
2016,03,03,10,05,12.90
2016,03,03,10,06,14.50
2016,03,03,10,07,14.50
2016,03,03,10,08,12.90
2016,03,03,10,09,9.60
2016,03,03,10,10,11.30
2016,03,03,10,11,12.90
2016,03,03,10,12,14.50
2016,03,03,10,13,16.10
2016,03,03,10,14,14.50
2016,03,03,10,15,16.10
2016,03,03,10,16,14.50
2016,03,03,10,17,16.10
2016,03,03,10,18,17.70
2016,03,03,10,19,17.70
2016,03,03,10,20,19.30
2016,03,03,10,21,19.30
2016,03,03,10,22,20.90
2016,03,03,10,23,22.50
2016,03,03,10,24,22.50
2016,03,03,10,25,22.50
2016,03,03,10,26,22.50
2016,03,03,10,27,20.90
2016,03,03,10,28,19.30
2016,03,03,10,29,17.70
2016,03,03,10,30,14.50
2016,03,03,10,31,12.90
2016,03,03,10,32,12.90
2016,03,03,10,33,16.10
2016,03,03,10,34,16.10
2016,03,03,10,35,14.50
2016,03,03,10,36,11.30
2016,03,03,10,37,11.30
2016,03,03,10,38,11.30
2016,03,03,10,39,11.30
2016,03,03,10,40,11.30
2016,03,03,10,41,11.30
2016,03,03,10,42,11.30
2016,03,03,10,43,1.60
2016,03,03,10,44,4.80
2016,03,03,10,45,9.60
2016,03,03,10,46,9.60
2016,03,03,10,47,12.90
2016,03,03,10,48,11.30
2016,03,03,10,49,6.40
2016,03,03,10,50,4.80
2016,03,03,10,51,3.20
2016,03,03,10,52,6.40
2016,03,03,10,53,11.30
2016,03,03,10,54,12.90
2016,03,03,10,55,11.30
2016,03,03,10,56,11.30
2016,03,03,10,57,8.10
2016,03,03,10,58,4.80
2016,03,03,10,59,6.40
2016,03,03,11,00,9.60
2016,03,03,11,01,14.50
2016,03,03,11,02,16.10
2016,03,03,11,03,14.50
2016,03,03,11,04,14.50
2016,03,03,11,05,11.30
2016,03,03,11,06,9.60
2016,03,03,11,07,11.30
2016,03,03,11,08,12.90
2016,03,03,11,09,14.50
2016,03,03,11,10,16.10
2016,03,03,11,11,17.70
2016,03,03,11,12,12.90
2016,03,03,11,13,9.60
2016,03,03,11,14,9.60
2016,03,03,11,15,11.30
2016,03,03,11,16,14.50
2016,03,03,11,17,16.10
2016,03,03,11,18,14.50
2016,03,03,11,19,14.50
2016,03,03,11,20,11.30
2016,03,03,11,21,11.30
2016,03,03,11,22,9.60
2016,03,03,11,23,11.30
2016,03,03,11,24,11.30
2016,03,03,11,25,12.90
2016,03,03,11,26,14.50
2016,03,03,11,27,14.50
2016,03,03,11,28,14.50
2016,03,03,11,29,9.60
2016,03,03,11,30,8.10
2016,03,03,11,31,8.10
2016,03,03,11,32,8.10
2016,03,03,11,33,8.10
2016,03,03,11,34,11.30
2016,03,03,11,35,12.90
2016,03,03,11,36,11.30
2016,03,03,11,37,9.60
2016,03,03,11,38,8.10
2016,03,03,11,39,6.40
2016,03,03,11,40,8.10
2016,03,03,11,41,8.10
2016,03,03,11,42,9.60
2016,03,03,11,43,11.30
2016,03,03,11,44,11.30
2016,03,03,11,45,12.90
2016,03,03,11,46,11.30
2016,03,03,11,47,9.60
2016,03,03,11,48,11.30
2016,03,03,11,49,9.60
2016,03,03,11,50,9.60
2016,03,03,11,51,11.30
2016,03,03,11,52,11.30
2016,03,03,11,53,11.30
2016,03,03,11,54,11.30
2016,03,03,11,55,11.30
2016,03,03,11,56,9.60
2016,03,03,11,57,9.60
2016,03,03,11,58,9.60
2016,03,03,11,59,9.60
2016,03,03,12,00,9.60
2016,03,03,12,01,9.60
2016,03,03,12,02,9.60
2016,03,03,12,03,9.60
2016,03,03,12,04,9.60
2016,03,03,12,05,9.60
2016,03,03,12,06,8.10
2016,03,03,12,07,8.10
2016,03,03,12,08,9.60
2016,03,03,12,09,11.30
2016,03,03,12,10,11.30
2016,03,03,12,11,11.30
2016,03,03,12,12,11.30
2016,03,03,12,13,9.60
2016,03,03,12,14,9.60
2016,03,03,12,15,11.30
2016,03,03,12,16,11.30
2016,03,03,12,17,11.30
2016,03,03,12,18,12.90
2016,03,03,12,19,12.90
2016,03,03,12,20,12.90
2016,03,03,12,21,11.30
2016,03,03,12,22,9.60
2016,03,03,12,23,9.60
2016,03,03,12,24,11.30
2016,03,03,12,25,11.30
2016,03,03,12,26,9.60
2016,03,03,12,27,9.60
2016,03,03,12,28,9.60
2016,03,03,12,29,9.60
2016,03,03,12,30,9.60
2016,03,03,12,31,9.60
2016,03,03,12,32,9.60
2016,03,03,12,33,9.60
2016,03,03,12,34,9.60
2016,03,03,12,35,9.60
2016,03,03,12,36,8.10
2016,03,03,12,37,8.10
2016,03,03,12,38,8.10
2016,03,03,12,39,8.10
2016,03,03,12,40,8.10
2016,03,03,12,41,6.40
2016,03,03,12,42,6.40
2016,03,03,12,43,6.40
2016,03,03,12,44,6.40
2016,03,03,12,45,6.40
2016,03,03,12,46,6.40
2016,03,03,12,47,6.40
2016,03,03,12,48,6.40
2016,03,03,12,49,6.40
2016,03,03,12,50,6.40
2016,03,03,12,51,6.40
2016,03,03,12,52,6.40
2016,03,03,12,53,4.80
2016,03,03,12,54,4.80
2016,03,03,12,55,4.80
2016,03,03,12,56,4.80
2016,03,03,12,57,4.80
2016,03,03,12,58,4.80
2016,03,03,12,59,4.80
2016,03,03,13,00,4.80
2016,03,03,13,01,4.80
2016,03,03,13,02,4.80
2016,03,03,13,03,4.80
2016,03,03,13,04,6.40
2016,03,03,13,05,4.80
2016,03,03,13,06,6.40
2016,03,03,13,07,6.40
2016,03,03,13,08,4.80
2016,03,03,13,09,6.40
2016,03,03,13,10,4.80
2016,03,03,13,11,3.20
2016,03,03,13,12,6.40
2016,03,03,13,13,12.90
2016,03,03,13,14,12.90
2016,03,03,13,15,12.90
2016,03,03,13,16,12.90
2016,03,03,13,17,12.90
2016,03,03,13,18,11.30
2016,03,03,13,19,11.30
2016,03,03,13,20,6.40
2016,03,03,13,21,8.10
2016,03,03,13,22,6.40
2016,03,03,13,23,4.80
2016,03,03,13,24,4.80
2016,03,03,13,25,8.10
2016,03,03,13,26,16.10
2016,03,03,13,27,20.90
2016,03,03,13,28,19.30
2016,03,03,13,29,17.70
2016,03,03,13,30,16.10
2016,03,03,13,31,16.10
2016,03,03,13,32,16.10
2016,03,03,13,33,16.10
2016,03,03,13,34,14.50
2016,03,03,13,35,12.90
2016,03,03,13,36,12.90
2016,03,03,13,37,11.30
2016,03,03,13,38,16.10
2016,03,03,13,39,17.70
2016,03,03,13,40,17.70
2016,03,03,13,41,16.10
2016,03,03,13,42,16.10
2016,03,03,13,43,14.50
2016,03,03,13,44,14.50
2016,03,03,13,45,14.50
2016,03,03,13,46,16.10
2016,03,03,13,47,16.10
2016,03,03,13,48,16.10
2016,03,03,13,49,16.10
2016,03,03,13,50,17.70
2016,03,03,13,51,17.70
2016,03,03,13,52,17.70
2016,03,03,13,53,20.90
2016,03,03,13,54,20.90
2016,03,03,13,55,20.90
2016,03,03,13,56,20.90
2016,03,03,13,57,20.90
2016,03,03,13,58,20.90
2016,03,03,13,59,17.70
2016,03,03,14,00,16.10
2016,03,03,14,01,16.10
2016,03,03,14,02,16.10
2016,03,03,14,03,16.10
2016,03,03,14,04,14.50
2016,03,03,14,05,14.50
2016,03,03,14,06,14.50
2016,03,03,14,07,14.50
2016,03,03,14,08,14.50
2016,03,03,14,09,14.50
2016,03,03,14,10,12.90
2016,03,03,14,11,12.90
2016,03,03,14,12,12.90
2016,03,03,14,13,12.90
2016,03,03,14,14,12.90
2016,03,03,14,15,11.30
2016,03,03,14,16,12.90
2016,03,03,14,17,12.90
2016,03,03,14,18,12.90
2016,03,03,14,19,14.50
2016,03,03,14,20,16.10
2016,03,03,14,21,16.10
2016,03,03,14,22,17.70
2016,03,03,14,23,17.70
2016,03,03,14,24,16.10
2016,03,03,14,25,17.70
2016,03,03,14,26,17.70
2016,03,03,14,27,17.70
2016,03,03,14,28,22.50
2016,03,03,14,29,17.70
2016,03,03,14,30,16.10
2016,03,03,14,31,16.10
2016,03,03,14,32,16.10
2016,03,03,14,33,16.10
2016,03,03,14,34,14.50
2016,03,03,14,35,14.50
2016,03,03,14,36,16.10
2016,03,03,14,37,16.10
2016,03,03,14,38,17.70
2016,03,03,14,39,17.70
2016,03,03,14,40,20.90
2016,03,03,14,41,20.90
2016,03,03,14,42,17.70
2016,03,03,14,43,17.70
2016,03,03,14,44,14.50
2016,03,03,14,45,14.50
2016,03,03,14,46,14.50
2016,03,03,14,47,16.10
2016,03,03,14,48,16.10
2016,03,03,14,49,16.10
2016,03,03,14,50,16.10
2016,03,03,14,51,16.10
2016,03,03,14,52,16.10
2016,03,03,14,53,16.10
2016,03,03,14,54,16.10
2016,03,03,14,55,14.50
2016,03,03,14,56,12.90
2016,03,03,14,57,12.90
2016,03,03,14,58,11.30
2016,03,03,14,59,11.30
2016,03,03,15,00,9.60
2016,03,03,15,01,8.10
2016,03,03,15,02,8.10
2016,03,03,15,03,8.10
2016,03,03,15,04,9.60
2016,03,03,15,05,9.60
2016,03,03,15,06,8.10
2016,03,03,15,07,6.40
2016,03,03,15,08,6.40
2016,03,03,15,09,6.40
2016,03,03,15,10,6.40
2016,03,03,15,11,6.40
2016,03,03,15,12,6.40
2016,03,03,15,13,6.40
2016,03,03,15,14,6.40
2016,03,03,15,15,6.40
2016,03,03,15,16,8.10
2016,03,03,15,17,9.60
2016,03,03,15,18,17.70
2016,03,03,15,19,24.20
2016,03,03,15,20,20.90
2016,03,03,15,21,19.30
2016,03,03,15,22,16.10
2016,03,03,15,23,17.70
2016,03,03,15,24,20.90
2016,03,03,15,25,20.90
2016,03,03,15,26,19.30
2016,03,03,15,27,17.70
2016,03,03,15,28,14.50
2016,03,03,15,29,12.90
2016,03,03,15,30,12.90
2016,03,03,15,31,16.10
2016,03,03,15,32,19.30
2016,03,03,15,33,25.70
2016,03,03,15,34,29.00
2016,03,03,15,35,27.40
2016,03,03,15,36,22.50
2016,03,03,15,37,20.90
2016,03,03,15,38,25.70
2016,03,03,15,39,24.20
2016,03,03,15,40,22.50
2016,03,03,15,41,20.90
2016,03,03,15,42,19.30
2016,03,03,15,43,17.70
2016,03,03,15,44,17.70
2016,03,03,15,45,17.70
2016,03,03,15,46,16.10
2016,03,03,15,47,14.50
2016,03,03,15,48,16.10
2016,03,03,15,49,16.10
2016,03,03,15,50,16.10
2016,03,03,15,51,16.10
2016,03,03,15,52,16.10
2016,03,03,15,53,16.10
2016,03,03,15,54,16.10
2016,03,03,15,55,16.10
2016,03,03,15,56,16.10
2016,03,03,15,57,17.70
2016,03,03,15,58,19.30
2016,03,03,15,59,19.30
2016,03,03,16,00,19.30
2016,03,03,16,01,17.70
2016,03,03,16,02,16.10
2016,03,03,16,03,16.10
2016,03,03,16,04,14.50
2016,03,03,16,05,14.50
2016,03,03,16,06,16.10
2016,03,03,16,07,17.70
2016,03,03,16,08,16.10
2016,03,03,16,09,14.50
2016,03,03,16,10,14.50
2016,03,03,16,11,12.90
2016,03,03,16,12,14.50
2016,03,03,16,13,14.50
2016,03,03,16,14,14.50
2016,03,03,16,15,14.50
2016,03,03,16,16,14.50
2016,03,03,16,17,14.50
2016,03,03,16,18,14.50
2016,03,03,16,19,14.50
2016,03,03,16,20,12.90
2016,03,03,16,21,12.90
2016,03,03,16,22,12.90
2016,03,03,16,23,11.30
2016,03,03,16,24,12.90
2016,03,03,16,25,14.50
2016,03,03,16,26,14.50
2016,03,03,16,27,14.50
2016,03,03,16,28,16.10
2016,03,03,16,29,16.10
2016,03,03,16,30,16.10
2016,03,03,16,31,14.50
2016,03,03,16,32,14.50
2016,03,03,16,33,14.50
2016,03,03,16,34,14.50
2016,03,03,16,35,14.50
2016,03,03,16,36,12.90
2016,03,03,16,37,14.50
2016,03,03,16,38,14.50
2016,03,03,16,39,14.50
2016,03,03,16,40,12.90
2016,03,03,16,41,14.50
2016,03,03,16,42,14.50
2016,03,03,16,43,14.50
2016,03,03,16,44,12.90
2016,03,03,16,45,12.90
2016,03,03,16,46,12.90
2016,03,03,16,47,12.90
2016,03,03,16,48,12.90
2016,03,03,16,49,12.90
2016,03,03,16,50,12.90
2016,03,03,16,51,12.90
2016,03,03,16,52,12.90
2016,03,03,16,53,12.90
2016,03,03,16,54,12.90
2016,03,03,16,55,12.90
2016,03,03,16,56,12.90
2016,03,03,16,57,11.30
2016,03,03,16,58,11.30
2016,03,03,16,59,11.30
2016,03,03,17,00,11.30
2016,03,03,17,01,11.30
2016,03,03,17,02,9.60
2016,03,03,17,03,9.60
2016,03,03,17,04,9.60
2016,03,03,17,05,9.60
2016,03,03,17,06,9.60
2016,03,03,17,07,11.30
2016,03,03,17,08,11.30
2016,03,03,17,09,12.90
2016,03,03,17,10,12.90
2016,03,03,17,11,12.90
2016,03,03,17,12,12.90
2016,03,03,17,13,12.90
2016,03,03,17,14,12.90
2016,03,03,17,15,14.50
2016,03,03,17,16,14.50
2016,03,03,17,17,14.50
2016,03,03,17,18,14.50
2016,03,03,17,19,14.50
2016,03,03,17,20,14.50
2016,03,03,17,21,14.50
2016,03,03,17,22,16.10
2016,03,03,17,23,14.50
2016,03,03,17,24,14.50
2016,03,03,17,25,14.50